Weather History for KMRF - February, 2014

Change the Weather History Date:

Thursday, February 13, 2014

  Actual Average Record
Temperature  
Mean Temperature 50 °F -  
Max Temperature 71 °F 59 °F 71 °F (2014)
Min Temperature 30 °F 28 °F 14 °F (1999)
Degree Days  
Heating Degree Days 14    
Moisture  
Dew Point 17 °F    
Average Humidity 26    
Maximum Humidity 44    
Minimum Humidity 15    
Precipitation  
Precipitation 0.00 in - - ()
Sea Level Pressure  
Sea Level Pressure 30.07 in    
Wind  
Wind Speed 10 mph (WNW)    
Max Wind Speed 22 mph    
Max Gust Speed 28 mph    
Visibility 10 miles    
Events      
Averages and records for this station are not official NWS values.
T = Trace of Precipitation, MM = Missing Value Source: NWS Daily Summary

Daily Weather History Graph

Daily Weather History Graph

Search for Another Location

Airport or City:

Trip Planner

Search our weather history database for the weather conditions in past years. The results will help you decide how hot, cold, wet, or windy it might be!

Date:

Astronomy

Feb. 13, 2014 Rise Set
Actual Time 7:38 AM CST 6:42 PM CST
Civil Twilight 7:13 AM CST 7:07 PM CST
Nautical Twilight 6:45 AM CST 7:35 PM CST
Astronomical Twilight 6:17 AM CST 8:03 PM CST
Moon 5:53 PM CST (2/13) 6:31 AM CST (2/13)
Length of Visible Light 11h 54m
Length of Day
11h 04m
Waxing Gibbous, 99% of the Moon is Illuminated
Feb 13
Waxing Gibbous
Feb 14
Full
Feb 22
Last Quarter
Mar 1
New
Mar 8
First Quarter

Hourly Weather History & Observations

Time (CST) Temp. Windchill Dew Point Humidity Pressure Visibility Wind Dir Wind Speed Gust Speed Precip Events Conditions
12:15 AM 35.6 °F 28.0 °F 10.4 °F 35% 30.11 in 10.0 mi WNW 10.4 mph - N/A   Clear
12:35 AM 39.2 °F 33.0 °F 10.4 °F 31% 30.11 in 10.0 mi West 9.2 mph - N/A   Clear
12:55 AM 35.6 °F 29.2 °F 8.6 °F 33% 30.11 in 10.0 mi WNW 8.1 mph - N/A   Clear
1:15 AM 35.6 °F 31.7 °F 10.4 °F 35% 30.11 in 10.0 mi WNW 4.6 mph - N/A   Clear
1:35 AM 33.8 °F 29.6 °F 10.4 °F 38% 30.10 in 10.0 mi WNW 4.6 mph - N/A   Clear
1:55 AM 33.8 °F 29.6 °F 10.4 °F 38% 30.10 in 10.0 mi WNW 4.6 mph - N/A   Clear
2:15 AM 32.0 °F 28.7 °F 10.4 °F 41% 30.09 in 10.0 mi WNW 3.5 mph - N/A   Clear
2:35 AM 30.2 °F 24.3 °F 8.6 °F 40% 30.09 in 10.0 mi NNE 5.8 mph - N/A   Clear
2:55 AM 35.6 °F 32.8 °F 12.2 °F 38% 30.08 in 10.0 mi North 3.5 mph - N/A   Clear
3:15 AM 33.8 °F - 10.4 °F 38% 30.07 in 10.0 mi Calm Calm - N/A   Clear
3:35 AM 32.0 °F 28.7 °F 10.4 °F 41% 30.08 in 10.0 mi ESE 3.5 mph - N/A   Clear
3:55 AM 32.0 °F 28.7 °F 12.2 °F 44% 30.08 in 10.0 mi SSE 3.5 mph - N/A   Clear
4:15 AM 33.8 °F 30.8 °F 10.4 °F 38% 30.07 in 10.0 mi SSW 3.5 mph - N/A   Clear
4:35 AM 32.0 °F 26.4 °F 8.6 °F 38% 30.06 in 10.0 mi SSW 5.8 mph - N/A   Clear
4:55 AM 33.8 °F 29.6 °F 12.2 °F 41% 30.05 in 10.0 mi SSW 4.6 mph - N/A   Clear
5:15 AM 33.8 °F 30.8 °F 12.2 °F 41% 30.06 in 10.0 mi NNW 3.5 mph - N/A   Clear
5:35 AM 46.4 °F 42.9 °F 15.8 °F 29% 30.06 in 10.0 mi WNW 6.9 mph - N/A   Clear
5:55 AM 44.6 °F 40.2 °F 15.8 °F 31% 30.06 in 10.0 mi West 8.1 mph - N/A   Clear
6:15 AM 37.4 °F 30.3 °F 12.2 °F 36% 30.06 in 10.0 mi NW 10.4 mph - N/A   Clear
6:35 AM 39.2 °F 32.5 °F 15.8 °F 39% 30.07 in 10.0 mi WNW 10.4 mph - N/A   Clear
6:55 AM 35.6 °F 28.0 °F 14.0 °F 41% 30.07 in 10.0 mi West 10.4 mph - N/A   Clear
7:15 AM 37.4 °F 31.4 °F 15.8 °F 41% 30.07 in 10.0 mi WNW 8.1 mph - N/A   Clear
7:35 AM 33.8 °F 29.6 °F 12.2 °F 41% 30.07 in 10.0 mi West 4.6 mph - N/A   Clear
7:55 AM 33.8 °F 30.8 °F 14.0 °F 44% 30.07 in 10.0 mi SSW 3.5 mph - N/A   Clear
8:15 AM 41.0 °F 39.0 °F 17.6 °F 39% 30.08 in 10.0 mi SSE 3.5 mph - N/A   Clear
8:35 AM 48.2 °F - 17.6 °F 30% 30.09 in 10.0 mi SW 5.8 mph - N/A   Clear
8:55 AM 51.8 °F - 15.8 °F 24% 30.08 in 10.0 mi WNW 12.7 mph - N/A   Clear
9:15 AM 55.4 °F - 17.6 °F 23% 30.09 in 10.0 mi West 10.4 mph - N/A   Clear
9:35 AM 57.2 °F - 15.8 °F 20% 30.11 in 10.0 mi West 11.5 mph - N/A   Clear
9:55 AM 59.0 °F - 15.8 °F 19% 30.11 in 10.0 mi West 15.0 mph 20.7 mph N/A   Clear
10:15 AM 60.8 °F - 15.8 °F 17% 30.11 in 10.0 mi West 17.3 mph 25.3 mph N/A   Clear
10:35 AM 60.8 °F - 17.6 °F 19% 30.11 in 10.0 mi WNW 16.1 mph - N/A   Clear
10:55 AM 62.6 °F - 17.6 °F 18% 30.11 in 10.0 mi WNW 18.4 mph 23.0 mph N/A   Clear
11:15 AM 62.6 °F - 17.6 °F 18% 30.11 in 10.0 mi WNW 17.3 mph 24.2 mph N/A   Clear
11:35 AM 64.4 °F - 19.4 °F 18% 30.11 in 10.0 mi WNW 19.6 mph 27.6 mph N/A   Clear
11:55 AM 64.4 °F - 19.4 °F 18% 30.11 in 10.0 mi WNW 21.9 mph 27.6 mph N/A   Clear
12:15 PM 66.2 °F - 19.4 °F 17% 30.10 in 10.0 mi WNW 21.9 mph 26.5 mph N/A   Clear
12:35 PM 66.2 °F - 21.2 °F 18% 30.10 in 10.0 mi West 18.4 mph 25.3 mph N/A   Clear
12:55 PM 66.2 °F - 21.2 °F 18% 30.08 in 10.0 mi West 16.1 mph 23.0 mph N/A   Clear
1:35 PM 68.0 °F - 21.2 °F 17% 30.06 in 10.0 mi WNW 18.4 mph 23.0 mph N/A   Clear
1:55 PM 69.8 °F - 21.2 °F 16% 30.05 in 10.0 mi WNW 17.3 mph 24.2 mph N/A   Clear
2:15 PM 69.8 °F - 21.2 °F 16% 30.05 in 10.0 mi West 21.9 mph 26.5 mph N/A   Clear
2:35 PM 69.8 °F - 21.2 °F 16% 30.05 in 10.0 mi WNW 21.9 mph 26.5 mph N/A   Clear
2:55 PM 69.8 °F - 21.2 °F 16% 30.04 in 10.0 mi WNW 19.6 mph - N/A   Clear
3:15 PM 69.8 °F - 21.2 °F 16% 30.04 in 10.0 mi WNW 15.0 mph 25.3 mph N/A   Clear
3:35 PM 69.8 °F - 21.2 °F 16% 30.03 in 10.0 mi WNW 19.6 mph 25.3 mph N/A   Clear
3:55 PM 71.6 °F - 21.2 °F 15% 30.03 in 10.0 mi WNW 15.0 mph 23.0 mph N/A   Clear
4:15 PM 69.8 °F - 21.2 °F 16% 30.03 in 10.0 mi WNW 18.4 mph 21.9 mph N/A   Clear
4:35 PM 69.8 °F - 21.2 °F 16% 30.03 in 10.0 mi West 11.5 mph 21.9 mph N/A   Clear
4:55 PM 69.8 °F - 21.2 °F 16% 30.02 in 10.0 mi WNW 15.0 mph - N/A   Clear
5:15 PM 69.8 °F - 21.2 °F 16% 30.02 in 10.0 mi NW 11.5 mph 23.0 mph N/A   Clear
5:35 PM 69.8 °F - 21.2 °F 16% 30.02 in 10.0 mi WNW 11.5 mph - N/A   Clear
5:55 PM 69.8 °F - 21.2 °F 16% 30.02 in 10.0 mi West 9.2 mph - N/A   Clear
6:15 PM 68.0 °F - 21.2 °F 17% 30.03 in 10.0 mi WNW 9.2 mph - N/A   Clear
6:35 PM 64.4 °F - 19.4 °F 18% 30.03 in 10.0 mi West 11.5 mph - N/A   Clear
6:55 PM 62.6 °F - 19.4 °F 19% 30.04 in 10.0 mi West 11.5 mph - N/A   Clear
7:15 PM 57.2 °F - 19.4 °F 23% 30.04 in 10.0 mi West 8.1 mph - N/A   Clear
7:35 PM 55.4 °F - 17.6 °F 23% 30.04 in 10.0 mi WSW 10.4 mph - N/A   Clear
7:55 PM 53.6 °F - 17.6 °F 24% 30.06 in 10.0 mi NW 8.1 mph - N/A   Clear
8:15 PM 55.4 °F - 19.4 °F 25% 30.06 in 10.0 mi WNW 12.7 mph - N/A   Clear
8:35 PM 57.2 °F - 19.4 °F 23% 30.06 in 10.0 mi WNW 12.7 mph 17.3 mph N/A   Clear
8:55 PM 60.8 °F - 19.4 °F 20% 30.06 in 10.0 mi WNW 15.0 mph 24.2 mph N/A   Clear
9:15 PM 57.2 °F - 19.4 °F 23% 30.06 in 10.0 mi WNW 8.1 mph - N/A   Clear
9:35 PM 59.0 °F - 19.4 °F 22% 30.05 in 10.0 mi NW 8.1 mph - N/A   Clear
9:55 PM 53.6 °F - 17.6 °F 24% 30.05 in 10.0 mi NNW 6.9 mph - N/A   Clear
10:15 PM 51.8 °F - 17.6 °F 26% 30.07 in 10.0 mi NW 10.4 mph - N/A   Clear
10:35 PM 51.8 °F - 17.6 °F 26% 30.07 in 10.0 mi West 10.4 mph - N/A   Clear
10:55 PM 50.0 °F - 17.6 °F 28% 30.07 in 10.0 mi WNW 12.7 mph - N/A   Clear
11:15 PM 55.4 °F - 19.4 °F 25% 30.08 in 10.0 mi WNW 11.5 mph - N/A   Clear
11:35 PM 55.4 °F - 17.6 °F 23% 30.09 in 10.0 mi NW 10.4 mph - N/A   Clear
11:55 PM 51.8 °F - 17.6 °F 26% 30.09 in 10.0 mi NW 6.9 mph - N/A   Clear